Regional Weather Roundup
Issued by NWS

Home | Current Version | Previous Version | Graphics & Text | Print | Product List | Glossary On
Versions: 1 2 3 4 5 6 7 8 9 10 11 12 13 14 15 16 17 18 19 20 21 22 23 24 25 26 27 28 29 30 31 32 33 34 35 36 37 38 39 40 41 42 43 44 45 46 47 48 49 50
841
ASUS43 KFSD 250702
RWRSD

WEATHER ROUNDUP FOR SOUTH DAKOTA
NATIONAL WEATHER SERVICE SIOUX FALLS SD
200 AM CDT FRI MAY 25 2018

NOTE: "FAIR" INDICATES FEW OR NO CLOUDS BELOW 12,000 FEET WITH NO
SIGNIFICANT WEATHER AND/OR OBSTRUCTIONS TO VISIBILITY.


SDZ001>005-009-010-012>017-250800-
NORTHWEST AND NORTH CENTRAL SOUTH DAKOTA

CITY           SKY/WX    TMP DP  RH WIND       PRES   REMARKS
BUFFALO          N/A     62  50  64 W9        29.83F
FAITH            N/A     64  58  80 SW10      29.88F
MOBRIDGE       CLEAR     66  59  78 SE5       29.80F
$$

SDZ012>016-024>037-041>051-057-063-072>074-250800-
SOUTHWEST AND SOUTH CENTRAL SOUTH DAKOTA

CITY           SKY/WX    TMP DP  RH WIND       PRES   REMARKS
RAPID CTY ARPT CLEAR     58  53  84 W5        29.93F
PIERRE         CLEAR     64  58  80 CALM      29.83F
CUSTER         CLEAR     51  43  74 CALM      30.06F
ELLSWORTH AFB  CLEAR     64  56  76 W6        29.93F
PHILIP         CLEAR     61  58  90 NW5       29.87F
PINE RIDGE     CLEAR     55  53  93 CALM      29.95F
SPEARFISH      FAIR      57  50  77 CALM      29.98S
WINNER         FAIR      64  57  78 SW6       29.87S
$$

SDZ004>011-016>023-039-040-250800-
NORTHEAST SOUTH DAKOTA

CITY           SKY/WX    TMP DP  RH WIND       PRES   REMARKS
ABERDEEN       PTCLDY    63  56  78 SW8       29.80S
WATERTOWN      CLOUDY    63  61  93 S7        29.82F
BROOKINGS      PTCLDY    67  59  75 S7        29.85F
SISSETON         N/A     71  64  78 SW9       29.77F
$$

SDZ017-020-022-023-036>040-048>070-250800-
SOUTHEAST SOUTH DAKOTA

CITY           SKY/WX    TMP DP  RH WIND       PRES   REMARKS
SIOUX FALLS    CLOUDY    68  60  75 S3        29.84F
HURON          CLOUDY    65  61  87 S3        29.82F
CHAMBERLAIN    MOCLDY    65  62  90 CALM      29.85F
MITCHELL       CLOUDY    64  60  87 CALM      29.83F
YANKTON        CLOUDY    69  59  70 SE7       29.84R
$$

ABBREVIATIONS USED IN REMARKS
   TC - TEMPERATURE IN CELSIUS
  WCI - WIND CHILL INDEX
   HX - HEAT INDEX
  VSB - VISIBILITY





USA.gov is the U.S. government's official web portal to all federal, state and local government web resources and services.